This is the latest recevied weather packets stored in our database for station/object HB9CJD-1. If no packets are shown the sender has not sent any weather packets the latest 1 day(s).
| Time | Temp. | Humidity | Pressure | Rain* | Wind** | Luminosity | Snow |
|---|---|---|---|---|---|---|---|
| 1777995754 | 16.11° C | 63% | 1011.6 hPa | - | 0 m/s | - | - |
| 1777995754 | 16.11° C | 63% | 1011.6 hPa | - | 0 m/s | - | - |
| 1777995151 | 16.67° C | 61% | 1011.6 hPa | - | 0 m/s | - | - |
| 1777995151 | 16.67° C | 61% | 1011.6 hPa | - | 0 m/s | - | - |
| 1777994548 | 17.78° C | 57% | 1011.4 hPa | - | 0 m/s | - | - |
| 1777994547 | 17.78° C | 57% | 1011.4 hPa | - | 0 m/s | - | - |
| 1777993944 | 18.33° C | 55% | 1011.4 hPa | - | 0 m/s | - | - |
| 1777993944 | 18.33° C | 55% | 1011.4 hPa | - | 0 m/s | - | - |
| 1777993341 | 18.33° C | 54% | 1011.4 hPa | - | 0 m/s | - | - |
| 1777993341 | 18.33° C | 54% | 1011.4 hPa | - | 0 m/s | - | - |
| 1777992738 | 18.33° C | 57% | 1011.3 hPa | - | 0 m/s | - | - |
| 1777992738 | 18.33° C | 57% | 1011.3 hPa | - | 0 m/s | - | - |
| 1777992134 | 18.33° C | 59% | 1011.2 hPa | - | 0 m/s | - | - |
| 1777992134 | 18.33° C | 59% | 1011.2 hPa | - | 0 m/s | - | - |
| 1777991531 | 18.33° C | 57% | 1011.2 hPa | - | 0 m/s | - | - |
| 1777991531 | 18.33° C | 57% | 1011.2 hPa | - | 0 m/s | - | - |
| 1777990928 | 18.89° C | 59% | 1011.2 hPa | - | 0 m/s | - | - |
| 1777990928 | 18.89° C | 59% | 1011.2 hPa | - | 0 m/s | - | - |
| 1777990325 | 17.78° C | 58% | 1011.2 hPa | - | 0 m/s | - | - |
| 1777990325 | 17.78° C | 58% | 1011.2 hPa | - | 0 m/s | - | - |
| 1777989721 | 18.89° C | 56% | 1011.2 hPa | - | 0 m/s | - | - |
| 1777989721 | 18.89° C | 56% | 1011.2 hPa | - | 0 m/s | - | - |
| 1777989118 | 19.44° C | 54% | 1011.2 hPa | - | 0 m/s | - | - |
| 1777989118 | 19.44° C | 54% | 1011.2 hPa | - | 0 m/s | - | - |
| 1777988515 | 20° C | 51% | 1011.1 hPa | - | 0 m/s | - | - |
* Rain since midnight (hover to see other rain measurements)
** Current wind speed in m/s (hover to see current wind gust speed)